sat.trackr.live / text

‹ back to catalog

STARLINK-36316

NORAD 67705 · 2026-025N

PAYLOAD ACTIVE UNKNOWN

§ Identity

Operator
Country
US
Launch date
2026-02-07
Launch site
AFWTR
Launch vehicle
Mass (kg)
RCS (m²)

Purposes: comms

External: N2YO · Heavens-Above · Gunter

§ Orbital elements

Epoch: 2026-09-19T06:17:34.238112Z

Period
93.91 min
Inclination
97.2842°
Eccentricity
0.0001106
Mean motion
15.33435625 rev/d
Perigee alt
464.8 km
Apogee alt
466.3 km
Semi-major
6,843.7 km
B*
7.0938e-4
RAAN
12.1395°
Arg perigee
82.7007°
Mean anomaly
277.4361°
Rev number
3,567

§ Raw data

STARLINK-363161 67705U 26025N   26262.26220183  .00022889  00000+0  70938-3 0  99902 67705  97.2842  12.1395 0001106  82.7007 277.4361 15.33435625 35670

JSON: /api/v1/satellites/67705 · /tle

For live sub-satellite position, see the globe view (requires WebGL).

§ Visibility from observer

Set your observer location to see the next 7 days of passes ≥ 10°. The values pass through the URL so the page stays shareable.

No JS? Fill the form by hand. The geolocation button needs JavaScript.